Information on these data can be found in provided Readme document
Contact Info: Zachary Fasnacht (zachary.fasnacht@ssaihq.com); Nickolay Krotkov (nickolay.a.krotkov@nasa.gov); Lok Lamsal (lok.lamsal@nasa.gov)

FillValue: -999.
ScaleFactor: 1e15
Units: molecules/cm^2

Date(yyyy-mm-dd),City,Country,LonCenter,LatCenter,BoundingCoordinates,Median,Q1,Q3,Mean,Baseline_Median,Baseline_Q1,Baseline_Q3,Baseline_Mean,NumGoodSamples,NumTotalSamples
2015-01-01,Rome,Italy,12.4501,41.9001,[11.9501 41.4001 12.9501 42.4001],1.641,1.015,2.437,1.775,2.322,1.237,3.62,2.562,169.0,595.0
2015-01-02,Rome,Italy,12.4501,41.9001,[11.9501 41.4001 12.9501 42.4001],1.863,1.017,2.522,1.891,2.318,1.346,3.71,2.633,180.0,593.0
2015-01-03,Rome,Italy,12.4501,41.9001,[11.9501 41.4001 12.9501 42.4001],1.463,1.004,2.299,1.749,2.372,1.538,3.816,2.72,150.0,596.0
2015-01-04,Rome,Italy,12.4501,41.9001,[11.9501 41.4001 12.9501 42.4001],1.462,1.004,2.299,1.748,2.487,1.624,4.086,2.868,149.0,595.0
2015-01-05,Rome,Italy,12.4501,41.9001,[11.9501 41.4001 12.9501 42.4001],1.544,1.013,2.516,1.944,2.425,1.571,4.066,2.863,175.0,599.0
2015-01-06,Rome,Italy,12.4501,41.9001,[11.9501 41.4001 12.9501 42.4001],1.636,1.017,2.783,2.074,2.543,1.711,4.439,3.007,160.0,603.0
2015-01-07,Rome,Italy,12.4501,41.9001,[11.9501 41.4001 12.9501 42.4001],1.635,1.015,2.783,2.057,2.785,1.682,4.546,3.077,166.0,597.0
2015-01-08,Rome,Italy,12.4501,41.9001,[11.9501 41.4001 12.9501 42.4001],1.94,1.17,3.148,2.208,2.879,1.692,4.623,3.191,135.0,589.0
2015-01-09,Rome,Italy,12.4501,41.9001,[11.9501 41.4001 12.9501 42.4001],1.94,1.17,3.059,2.19,2.868,1.639,4.579,3.18,147.0,590.0
2015-01-10,Rome,Italy,12.4501,41.9001,[11.9501 41.4001 12.9501 42.4001],2.007,1.206,3.288,2.385,2.909,1.539,4.744,3.236,114.0,548.0
2015-01-11,Rome,Italy,12.4501,41.9001,[11.9501 41.4001 12.9501 42.4001],2.007,1.206,3.288,2.385,2.904,1.511,4.754,3.229,114.0,546.0
2015-01-12,Rome,Italy,12.4501,41.9001,[11.9501 41.4001 12.9501 42.4001],2.533,1.273,3.395,2.622,2.989,1.505,4.788,3.267,98.0,544.0
2015-01-13,Rome,Italy,12.4501,41.9001,[11.9501 41.4001 12.9501 42.4001],2.561,1.332,3.356,2.678,2.737,1.519,4.296,3.042,72.0,554.0
2015-01-14,Rome,Italy,12.4501,41.9001,[11.9501 41.4001 12.9501 42.4001],2.561,1.332,3.395,2.688,2.679,1.652,4.073,3.018,70.0,554.0
2015-01-15,Rome,Italy,12.4501,41.9001,[11.9501 41.4001 12.9501 42.4001],2.62,1.332,3.395,2.737,2.934,1.702,4.364,3.181,66.0,554.0
2015-01-16,Rome,Italy,12.4501,41.9001,[11.9501 41.4001 12.9501 42.4001],2.746,1.332,3.657,2.816,2.899,1.531,4.33,3.111,69.0,552.0
2015-01-17,Rome,Italy,12.4501,41.9001,[11.9501 41.4001 12.9501 42.4001],2.533,1.273,3.356,2.641,3.132,1.834,4.608,3.359,58.0,550.0
2015-01-18,Rome,Italy,12.4501,41.9001,[11.9501 41.4001 12.9501 42.4001],2.533,1.332,3.356,2.632,3.217,1.782,4.699,3.35,62.0,553.0
2015-01-19,Rome,Italy,12.4501,41.9001,[11.9501 41.4001 12.9501 42.4001],2.533,1.332,3.356,2.632,3.027,1.732,4.402,3.231,62.0,556.0
2015-01-20,Rome,Italy,12.4501,41.9001,[11.9501 41.4001 12.9501 42.4001],2.088,1.047,3.288,2.382,2.932,1.662,4.336,3.154,69.0,554.0
2015-01-21,Rome,Italy,12.4501,41.9001,[11.9501 41.4001 12.9501 42.4001],2.406,1.23,4.528,3.046,2.786,1.629,4.385,3.166,84.0,557.0
2015-01-22,Rome,Italy,12.4501,41.9001,[11.9501 41.4001 12.9501 42.4001],2.406,1.301,4.528,3.105,2.896,1.617,4.417,3.201,78.0,565.0
2015-01-23,Rome,Italy,12.4501,41.9001,[11.9501 41.4001 12.9501 42.4001],2.406,1.301,4.528,3.105,2.92,1.704,4.634,3.32,78.0,562.0
2015-01-24,Rome,Italy,12.4501,41.9001,[11.9501 41.4001 12.9501 42.4001],3.057,1.301,5.703,3.38,3.049,1.735,4.77,3.376,66.0,552.0
2015-01-25,Rome,Italy,12.4501,41.9001,[11.9501 41.4001 12.9501 42.4001],2.406,1.226,5.445,3.173,2.991,1.772,4.631,3.343,75.0,598.0
2015-01-26,Rome,Italy,12.4501,41.9001,[11.9501 41.4001 12.9501 42.4001],2.406,1.226,5.445,3.173,3.009,1.769,4.703,3.381,75.0,601.0
2015-01-27,Rome,Italy,12.4501,41.9001,[11.9501 41.4001 12.9501 42.4001],2.406,1.226,5.445,3.173,3.001,1.725,4.671,3.352,75.0,601.0
2015-01-28,Rome,Italy,12.4501,41.9001,[11.9501 41.4001 12.9501 42.4001],2.406,1.226,5.445,3.173,2.784,1.698,4.444,3.258,75.0,598.0
2015-01-29,Rome,Italy,12.4501,41.9001,[11.9501 41.4001 12.9501 42.4001],2.406,1.226,5.445,3.173,2.835,1.705,4.543,3.298,75.0,606.0
2015-01-30,Rome,Italy,12.4501,41.9001,[11.9501 41.4001 12.9501 42.4001],2.406,1.226,5.445,3.173,2.722,1.683,4.444,3.198,75.0,604.0
2015-01-31,Rome,Italy,12.4501,41.9001,[11.9501 41.4001 12.9501 42.4001],2.406,1.226,4.528,3.111,2.691,1.692,4.309,3.178,72.0,607.0
2015-02-01,Rome,Italy,12.4501,41.9001,[11.9501 41.4001 12.9501 42.4001],2.356,1.047,3.973,2.903,2.56,1.56,3.936,2.992,94.0,606.0
2015-02-02,Rome,Italy,12.4501,41.9001,[11.9501 41.4001 12.9501 42.4001],2.374,1.047,3.992,2.916,2.684,1.655,4.001,3.055,90.0,600.0
2015-02-03,Rome,Italy,12.4501,41.9001,[11.9501 41.4001 12.9501 42.4001],1.99,1.029,3.247,2.463,2.496,1.61,3.827,2.877,129.0,599.0
2015-02-04,Rome,Italy,12.4501,41.9001,[11.9501 41.4001 12.9501 42.4001],1.716,0.86,3.247,2.422,2.525,1.61,3.836,2.905,96.0,603.0
2015-02-05,Rome,Italy,12.4501,41.9001,[11.9501 41.4001 12.9501 42.4001],1.67,0.771,2.684,1.992,2.617,1.649,3.81,2.906,99.0,602.0
2015-02-06,Rome,Italy,12.4501,41.9001,[11.9501 41.4001 12.9501 42.4001],1.67,0.859,2.943,2.037,2.447,1.584,3.672,2.755,107.0,603.0
2015-02-07,Rome,Italy,12.4501,41.9001,[11.9501 41.4001 12.9501 42.4001],1.67,0.859,2.943,2.037,2.29,1.533,3.506,2.639,107.0,607.0
2015-02-08,Rome,Italy,12.4501,41.9001,[11.9501 41.4001 12.9501 42.4001],1.67,0.713,3.039,2.01,2.312,1.487,3.498,2.624,117.0,605.0
2015-02-09,Rome,Italy,12.4501,41.9001,[11.9501 41.4001 12.9501 42.4001],1.67,0.679,2.998,2.018,2.306,1.436,3.472,2.633,108.0,594.0
2015-02-10,Rome,Italy,12.4501,41.9001,[11.9501 41.4001 12.9501 42.4001],1.743,0.904,3.106,2.228,2.279,1.486,3.475,2.626,146.0,594.0
2015-02-11,Rome,Italy,12.4501,41.9001,[11.9501 41.4001 12.9501 42.4001],1.743,0.904,3.106,2.228,2.285,1.467,3.46,2.647,146.0,552.0
2015-02-12,Rome,Italy,12.4501,41.9001,[11.9501 41.4001 12.9501 42.4001],2.032,1.088,3.106,2.259,2.235,1.409,3.46,2.602,181.0,551.0
2015-02-13,Rome,Italy,12.4501,41.9001,[11.9501 41.4001 12.9501 42.4001],2.032,1.088,3.106,2.259,2.356,1.519,3.536,2.685,181.0,548.0
2015-02-14,Rome,Italy,12.4501,41.9001,[11.9501 41.4001 12.9501 42.4001],2.032,1.088,3.106,2.259,2.39,1.572,3.624,2.781,181.0,556.0
2015-02-15,Rome,Italy,12.4501,41.9001,[11.9501 41.4001 12.9501 42.4001],2.032,1.115,3.106,2.271,2.402,1.549,3.617,2.784,192.0,551.0
2015-02-16,Rome,Italy,12.4501,41.9001,[11.9501 41.4001 12.9501 42.4001],2.035,1.245,3.136,2.283,2.351,1.463,3.563,2.704,170.0,553.0
2015-02-17,Rome,Italy,12.4501,41.9001,[11.9501 41.4001 12.9501 42.4001],2.035,1.245,3.136,2.283,2.271,1.398,3.518,2.633,170.0,552.0
2015-02-18,Rome,Italy,12.4501,41.9001,[11.9501 41.4001 12.9501 42.4001],2.09,1.368,3.457,2.497,2.216,1.313,3.62,2.617,131.0,552.0
2015-02-19,Rome,Italy,12.4501,41.9001,[11.9501 41.4001 12.9501 42.4001],2.355,1.385,3.499,2.662,2.28,1.275,3.551,2.604,145.0,553.0
2015-02-20,Rome,Italy,12.4501,41.9001,[11.9501 41.4001 12.9501 42.4001],2.607,1.45,3.535,2.75,2.309,1.303,3.366,2.611,116.0,559.0
2015-02-21,Rome,Italy,12.4501,41.9001,[11.9501 41.4001 12.9501 42.4001],2.8,1.715,3.79,2.963,2.321,1.383,3.407,2.613,140.0,559.0
2015-02-22,Rome,Italy,12.4501,41.9001,[11.9501 41.4001 12.9501 42.4001],2.802,1.715,4.015,3.064,2.235,1.363,3.48,2.613,154.0,561.0
2015-02-23,Rome,Italy,12.4501,41.9001,[11.9501 41.4001 12.9501 42.4001],2.832,1.749,4.045,3.133,2.207,1.277,3.331,2.527,144.0,565.0
2015-02-24,Rome,Italy,12.4501,41.9001,[11.9501 41.4001 12.9501 42.4001],2.87,1.749,4.108,3.225,2.353,1.301,3.49,2.601,166.0,562.0
2015-02-25,Rome,Italy,12.4501,41.9001,[11.9501 41.4001 12.9501 42.4001],2.975,1.948,4.44,3.398,2.276,1.297,3.495,2.565,128.0,553.0
2015-02-26,Rome,Italy,12.4501,41.9001,[11.9501 41.4001 12.9501 42.4001],2.975,1.948,4.44,3.398,2.267,1.273,3.393,2.499,128.0,599.0
2015-02-27,Rome,Italy,12.4501,41.9001,[11.9501 41.4001 12.9501 42.4001],3.833,2.206,5.337,3.985,2.31,1.238,3.505,2.536,93.0,600.0
2015-02-28,Rome,Italy,12.4501,41.9001,[11.9501 41.4001 12.9501 42.4001],3.136,1.72,4.44,3.369,2.276,1.145,3.437,2.441,120.0,599.0
2015-03-01,Rome,Italy,12.4501,41.9001,[11.9501 41.4001 12.9501 42.4001],3.136,1.72,4.44,3.369,2.137,1.135,3.359,2.323,120.0,597.0
2015-03-02,Rome,Italy,12.4501,41.9001,[11.9501 41.4001 12.9501 42.4001],2.964,1.498,4.357,3.207,2.174,1.095,3.4,2.375,124.0,607.0
2015-03-03,Rome,Italy,12.4501,41.9001,[11.9501 41.4001 12.9501 42.4001],2.87,1.456,4.321,3.187,2.372,1.169,3.729,2.555,150.0,603.0
2015-03-04,Rome,Italy,12.4501,41.9001,[11.9501 41.4001 12.9501 42.4001],2.87,1.456,4.321,3.187,2.418,1.15,3.755,2.589,150.0,604.0
2015-03-05,Rome,Italy,12.4501,41.9001,[11.9501 41.4001 12.9501 42.4001],2.836,1.456,4.176,3.128,2.535,1.293,3.71,2.677,179.0,602.0
2015-03-06,Rome,Italy,12.4501,41.9001,[11.9501 41.4001 12.9501 42.4001],2.78,1.439,4.108,3.014,2.578,1.388,3.722,2.675,165.0,600.0
2015-03-07,Rome,Italy,12.4501,41.9001,[11.9501 41.4001 12.9501 42.4001],2.802,1.493,4.211,3.165,2.491,1.384,3.735,2.678,181.0,597.0
2015-03-08,Rome,Italy,12.4501,41.9001,[11.9501 41.4001 12.9501 42.4001],2.463,1.456,3.86,3.034,2.482,1.423,3.734,2.69,149.0,600.0
2015-03-09,Rome,Italy,12.4501,41.9001,[11.9501 41.4001 12.9501 42.4001],2.421,1.33,3.566,2.918,2.511,1.459,3.641,2.702,135.0,599.0
2015-03-10,Rome,Italy,12.4501,41.9001,[11.9501 41.4001 12.9501 42.4001],2.421,1.33,3.566,2.918,2.571,1.499,3.705,2.808,135.0,601.0
2015-03-11,Rome,Italy,12.4501,41.9001,[11.9501 41.4001 12.9501 42.4001],2.271,1.238,3.293,2.614,2.489,1.427,3.585,2.696,117.0,607.0
2015-03-12,Rome,Italy,12.4501,41.9001,[11.9501 41.4001 12.9501 42.4001],2.31,1.239,3.442,2.81,2.482,1.492,3.669,2.754,142.0,605.0
2015-03-13,Rome,Italy,12.4501,41.9001,[11.9501 41.4001 12.9501 42.4001],2.31,1.239,3.442,2.81,2.596,1.515,3.723,2.834,142.0,596.0
2015-03-14,Rome,Italy,12.4501,41.9001,[11.9501 41.4001 12.9501 42.4001],2.292,1.243,3.442,2.804,2.435,1.336,3.657,2.718,146.0,598.0
2015-03-15,Rome,Italy,12.4501,41.9001,[11.9501 41.4001 12.9501 42.4001],2.374,1.25,4.114,3.047,2.446,1.327,3.762,2.747,119.0,557.0
2015-03-16,Rome,Italy,12.4501,41.9001,[11.9501 41.4001 12.9501 42.4001],2.543,1.29,4.114,3.059,2.421,1.358,3.748,2.755,129.0,558.0
2015-03-17,Rome,Italy,12.4501,41.9001,[11.9501 41.4001 12.9501 42.4001],2.568,1.243,4.327,3.248,2.434,1.326,3.671,2.712,114.0,554.0
2015-03-18,Rome,Italy,12.4501,41.9001,[11.9501 41.4001 12.9501 42.4001],2.836,1.33,4.461,3.293,2.258,1.219,3.435,2.49,88.0,559.0
2015-03-19,Rome,Italy,12.4501,41.9001,[11.9501 41.4001 12.9501 42.4001],2.748,1.33,4.327,3.2,2.214,1.233,3.295,2.445,103.0,557.0
2015-03-20,Rome,Italy,12.4501,41.9001,[11.9501 41.4001 12.9501 42.4001],2.976,1.238,4.641,3.365,2.221,1.147,3.234,2.477,74.0,556.0
2015-03-21,Rome,Italy,12.4501,41.9001,[11.9501 41.4001 12.9501 42.4001],2.371,0.993,3.807,2.787,2.04,1.095,3.047,2.383,105.0,554.0
2015-03-22,Rome,Italy,12.4501,41.9001,[11.9501 41.4001 12.9501 42.4001],1.839,0.774,3.386,2.379,1.942,1.063,2.926,2.292,89.0,554.0
2015-03-23,Rome,Italy,12.4501,41.9001,[11.9501 41.4001 12.9501 42.4001],2.343,0.993,3.499,2.487,2.009,1.094,3.043,2.3,113.0,555.0
2015-03-24,Rome,Italy,12.4501,41.9001,[11.9501 41.4001 12.9501 42.4001],2.343,0.993,3.499,2.487,1.946,1.072,2.967,2.249,113.0,560.0
2015-03-25,Rome,Italy,12.4501,41.9001,[11.9501 41.4001 12.9501 42.4001],2.301,1.116,3.25,2.334,2.058,1.139,3.082,2.311,148.0,560.0
2015-03-26,Rome,Italy,12.4501,41.9001,[11.9501 41.4001 12.9501 42.4001],2.343,1.285,3.386,2.465,2.031,1.158,3.131,2.301,172.0,561.0
2015-03-27,Rome,Italy,12.4501,41.9001,[11.9501 41.4001 12.9501 42.4001],2.045,0.996,2.747,2.074,1.957,1.066,3.008,2.216,158.0,567.0
2015-03-28,Rome,Italy,12.4501,41.9001,[11.9501 41.4001 12.9501 42.4001],2.045,0.996,2.747,2.074,2.01,1.101,3.065,2.248,158.0,562.0
2015-03-29,Rome,Italy,12.4501,41.9001,[11.9501 41.4001 12.9501 42.4001],2.045,0.996,2.747,2.071,2.022,1.15,2.991,2.287,154.0,555.0
2015-03-30,Rome,Italy,12.4501,41.9001,[11.9501 41.4001 12.9501 42.4001],1.947,0.996,2.7,2.021,1.982,1.098,2.961,2.228,172.0,601.0
2015-03-31,Rome,Italy,12.4501,41.9001,[11.9501 41.4001 12.9501 42.4001],1.85,0.996,2.589,1.941,1.983,1.125,2.948,2.242,162.0,599.0
2015-04-01,Rome,Italy,12.4501,41.9001,[11.9501 41.4001 12.9501 42.4001],1.85,0.863,2.613,1.894,1.967,1.129,2.891,2.214,184.0,600.0
2015-04-02,Rome,Italy,12.4501,41.9001,[11.9501 41.4001 12.9501 42.4001],1.85,0.863,2.613,1.894,1.951,1.142,2.885,2.232,184.0,601.0
2015-04-03,Rome,Italy,12.4501,41.9001,[11.9501 41.4001 12.9501 42.4001],1.947,1.088,2.7,2.023,1.97,1.194,2.937,2.245,185.0,603.0
2015-04-04,Rome,Italy,12.4501,41.9001,[11.9501 41.4001 12.9501 42.4001],1.913,0.996,2.653,1.979,1.966,1.21,2.936,2.209,209.0,602.0
2015-04-05,Rome,Italy,12.4501,41.9001,[11.9501 41.4001 12.9501 42.4001],1.974,1.064,2.653,2.044,1.983,1.209,2.919,2.222,182.0,599.0
2015-04-06,Rome,Italy,12.4501,41.9001,[11.9501 41.4001 12.9501 42.4001],1.903,0.996,2.653,2.058,2.015,1.183,2.884,2.215,213.0,596.0
2015-04-07,Rome,Italy,12.4501,41.9001,[11.9501 41.4001 12.9501 42.4001],1.78,0.885,2.589,1.97,1.967,1.145,2.853,2.169,189.0,593.0
2015-04-08,Rome,Italy,12.4501,41.9001,[11.9501 41.4001 12.9501 42.4001],1.737,0.901,2.839,2.016,1.999,1.201,2.979,2.24,227.0,597.0
2015-04-09,Rome,Italy,12.4501,41.9001,[11.9501 41.4001 12.9501 42.4001],1.629,0.851,2.869,2.022,1.863,1.092,2.819,2.09,192.0,602.0
2015-04-10,Rome,Italy,12.4501,41.9001,[11.9501 41.4001 12.9501 42.4001],1.684,0.93,2.957,2.074,1.921,1.138,2.934,2.152,191.0,602.0
2015-04-11,Rome,Italy,12.4501,41.9001,[11.9501 41.4001 12.9501 42.4001],1.85,1.037,3.311,2.168,1.965,1.159,3.015,2.168,200.0,603.0
2015-04-12,Rome,Italy,12.4501,41.9001,[11.9501 41.4001 12.9501 42.4001],1.689,1.019,3.174,2.101,1.948,1.109,2.957,2.129,206.0,609.0
2015-04-13,Rome,Italy,12.4501,41.9001,[11.9501 41.4001 12.9501 42.4001],1.735,1.019,3.113,2.157,2.011,1.21,3.08,2.22,228.0,603.0
2015-04-14,Rome,Italy,12.4501,41.9001,[11.9501 41.4001 12.9501 42.4001],1.887,0.943,3.279,2.204,2.051,1.239,3.169,2.249,210.0,594.0
2015-04-15,Rome,Italy,12.4501,41.9001,[11.9501 41.4001 12.9501 42.4001],2.0,1.199,3.113,2.247,2.063,1.299,3.015,2.214,249.0,600.0
2015-04-16,Rome,Italy,12.4501,41.9001,[11.9501 41.4001 12.9501 42.4001],2.002,1.212,3.279,2.337,2.046,1.277,3.098,2.235,227.0,557.0
2015-04-17,Rome,Italy,12.4501,41.9001,[11.9501 41.4001 12.9501 42.4001],2.0,1.069,3.258,2.25,2.06,1.247,3.077,2.209,250.0,616.0
2015-04-18,Rome,Italy,12.4501,41.9001,[11.9501 41.4001 12.9501 42.4001],1.837,1.031,3.089,2.156,2.018,1.234,3.017,2.179,234.0,619.0
2015-04-19,Rome,Italy,12.4501,41.9001,[11.9501 41.4001 12.9501 42.4001],1.887,1.037,3.113,2.21,2.049,1.219,3.004,2.174,210.0,656.0
2015-04-20,Rome,Italy,12.4501,41.9001,[11.9501 41.4001 12.9501 42.4001],1.887,1.037,3.113,2.214,2.059,1.211,2.997,2.179,206.0,662.0
2015-04-21,Rome,Italy,12.4501,41.9001,[11.9501 41.4001 12.9501 42.4001],2.002,1.21,3.174,2.223,2.09,1.185,3.005,2.196,175.0,662.0
2015-04-22,Rome,Italy,12.4501,41.9001,[11.9501 41.4001 12.9501 42.4001],1.948,1.037,3.089,2.146,2.124,1.214,3.026,2.216,194.0,660.0
2015-04-23,Rome,Italy,12.4501,41.9001,[11.9501 41.4001 12.9501 42.4001],2.0,1.111,2.872,2.123,2.083,1.236,2.988,2.183,156.0,654.0
2015-04-24,Rome,Italy,12.4501,41.9001,[11.9501 41.4001 12.9501 42.4001],1.948,1.059,2.752,2.02,2.181,1.309,2.988,2.219,190.0,652.0
2015-04-25,Rome,Italy,12.4501,41.9001,[11.9501 41.4001 12.9501 42.4001],1.826,1.031,2.513,1.899,2.151,1.295,2.914,2.177,163.0,657.0
2015-04-26,Rome,Italy,12.4501,41.9001,[11.9501 41.4001 12.9501 42.4001],1.737,1.012,2.35,1.793,2.144,1.322,2.946,2.194,173.0,656.0
2015-04-27,Rome,Italy,12.4501,41.9001,[11.9501 41.4001 12.9501 42.4001],1.765,0.981,2.373,1.822,2.037,1.197,2.877,2.116,194.0,658.0
2015-04-28,Rome,Italy,12.4501,41.9001,[11.9501 41.4001 12.9501 42.4001],1.745,1.013,2.34,1.719,1.95,1.129,2.654,1.961,201.0,665.0
2015-04-29,Rome,Italy,12.4501,41.9001,[11.9501 41.4001 12.9501 42.4001],1.745,1.013,2.35,1.743,1.973,1.152,2.67,1.981,226.0,658.0
2015-04-30,Rome,Italy,12.4501,41.9001,[11.9501 41.4001 12.9501 42.4001],1.59,0.949,2.29,1.585,1.911,1.156,2.651,1.943,204.0,647.0
2015-05-01,Rome,Italy,12.4501,41.9001,[11.9501 41.4001 12.9501 42.4001],1.59,0.963,2.275,1.623,1.881,1.133,2.573,1.908,233.0,693.0
2015-05-02,Rome,Italy,12.4501,41.9001,[11.9501 41.4001 12.9501 42.4001],1.59,0.969,2.163,1.619,1.85,1.105,2.547,1.903,210.0,634.0
2015-05-03,Rome,Italy,12.4501,41.9001,[11.9501 41.4001 12.9501 42.4001],1.527,0.963,2.055,1.53,1.751,1.009,2.444,1.809,246.0,633.0
2015-05-04,Rome,Italy,12.4501,41.9001,[11.9501 41.4001 12.9501 42.4001],1.486,0.949,2.027,1.519,1.711,0.971,2.417,1.79,256.0,601.0
2015-05-05,Rome,Italy,12.4501,41.9001,[11.9501 41.4001 12.9501 42.4001],1.534,0.963,2.027,1.543,1.702,0.978,2.447,1.784,286.0,607.0
2015-05-06,Rome,Italy,12.4501,41.9001,[11.9501 41.4001 12.9501 42.4001],1.534,0.963,2.029,1.561,1.645,0.958,2.305,1.723,313.0,603.0
2015-05-07,Rome,Italy,12.4501,41.9001,[11.9501 41.4001 12.9501 42.4001],1.535,0.963,2.017,1.557,1.608,0.932,2.221,1.666,301.0,625.0
2015-05-08,Rome,Italy,12.4501,41.9001,[11.9501 41.4001 12.9501 42.4001],1.535,0.963,2.017,1.557,1.584,0.936,2.174,1.655,301.0,624.0
2015-05-09,Rome,Italy,12.4501,41.9001,[11.9501 41.4001 12.9501 42.4001],1.501,0.949,1.993,1.556,1.579,0.943,2.143,1.66,267.0,663.0
2015-05-10,Rome,Italy,12.4501,41.9001,[11.9501 41.4001 12.9501 42.4001],1.547,0.963,2.017,1.584,1.602,0.941,2.176,1.675,305.0,682.0
2015-05-11,Rome,Italy,12.4501,41.9001,[11.9501 41.4001 12.9501 42.4001],1.557,0.969,2.055,1.615,1.611,0.957,2.27,1.716,275.0,688.0
2015-05-12,Rome,Italy,12.4501,41.9001,[11.9501 41.4001 12.9501 42.4001],1.573,0.987,2.133,1.636,1.629,0.969,2.286,1.732,281.0,689.0
2015-05-13,Rome,Italy,12.4501,41.9001,[11.9501 41.4001 12.9501 42.4001],1.535,0.986,2.092,1.629,1.611,0.966,2.248,1.708,255.0,690.0
2015-05-14,Rome,Italy,12.4501,41.9001,[11.9501 41.4001 12.9501 42.4001],1.559,0.986,2.092,1.632,1.604,0.944,2.213,1.7,250.0,696.0
2015-05-15,Rome,Italy,12.4501,41.9001,[11.9501 41.4001 12.9501 42.4001],1.58,0.987,2.22,1.724,1.615,0.95,2.306,1.724,243.0,693.0
2015-05-16,Rome,Italy,12.4501,41.9001,[11.9501 41.4001 12.9501 42.4001],1.58,0.97,2.238,1.712,1.61,0.955,2.338,1.733,215.0,681.0
2015-05-17,Rome,Italy,12.4501,41.9001,[11.9501 41.4001 12.9501 42.4001],1.615,0.986,2.29,1.742,1.626,0.985,2.342,1.755,225.0,683.0
2015-05-18,Rome,Italy,12.4501,41.9001,[11.9501 41.4001 12.9501 42.4001],1.731,1.083,2.669,1.895,1.707,1.014,2.484,1.82,189.0,642.0
2015-05-19,Rome,Italy,12.4501,41.9001,[11.9501 41.4001 12.9501 42.4001],1.686,1.103,2.531,1.86,1.689,1.044,2.443,1.815,197.0,683.0
2015-05-20,Rome,Italy,12.4501,41.9001,[11.9501 41.4001 12.9501 42.4001],1.758,1.067,2.58,1.89,1.712,1.063,2.45,1.835,175.0,676.0
2015-05-21,Rome,Italy,12.4501,41.9001,[11.9501 41.4001 12.9501 42.4001],1.543,0.837,2.367,1.719,1.709,1.017,2.451,1.848,175.0,715.0
2015-05-22,Rome,Italy,12.4501,41.9001,[11.9501 41.4001 12.9501 42.4001],1.557,0.837,2.468,1.805,1.668,1.031,2.475,1.852,195.0,697.0
2015-05-23,Rome,Italy,12.4501,41.9001,[11.9501 41.4001 12.9501 42.4001],1.617,0.861,2.468,1.835,1.652,1.012,2.439,1.823,220.0,699.0
2015-05-24,Rome,Italy,12.4501,41.9001,[11.9501 41.4001 12.9501 42.4001],1.578,0.902,2.367,1.811,1.687,1.024,2.524,1.841,254.0,657.0
2015-05-25,Rome,Italy,12.4501,41.9001,[11.9501 41.4001 12.9501 42.4001],1.561,0.853,2.468,1.822,1.689,1.057,2.466,1.847,216.0,635.0
2015-05-26,Rome,Italy,12.4501,41.9001,[11.9501 41.4001 12.9501 42.4001],1.716,0.986,2.632,1.893,1.668,1.062,2.411,1.799,256.0,633.0
2015-05-27,Rome,Italy,12.4501,41.9001,[11.9501 41.4001 12.9501 42.4001],1.755,0.911,2.632,1.921,1.695,1.064,2.402,1.811,223.0,637.0
2015-05-28,Rome,Italy,12.4501,41.9001,[11.9501 41.4001 12.9501 42.4001],1.817,1.112,2.644,1.957,1.728,1.15,2.413,1.846,253.0,636.0
2015-05-29,Rome,Italy,12.4501,41.9001,[11.9501 41.4001 12.9501 42.4001],1.758,1.117,2.644,1.988,1.703,1.155,2.406,1.838,264.0,639.0
2015-05-30,Rome,Italy,12.4501,41.9001,[11.9501 41.4001 12.9501 42.4001],1.743,1.16,2.468,1.882,1.695,1.146,2.319,1.782,281.0,643.0
2015-05-31,Rome,Italy,12.4501,41.9001,[11.9501 41.4001 12.9501 42.4001],1.743,1.14,2.468,1.875,1.705,1.135,2.318,1.779,299.0,642.0
2015-06-01,Rome,Italy,12.4501,41.9001,[11.9501 41.4001 12.9501 42.4001],1.716,1.117,2.389,1.855,1.696,1.131,2.295,1.757,296.0,633.0
2015-06-02,Rome,Italy,12.4501,41.9001,[11.9501 41.4001 12.9501 42.4001],1.73,1.16,2.363,1.853,1.709,1.176,2.306,1.762,313.0,678.0
2015-06-03,Rome,Italy,12.4501,41.9001,[11.9501 41.4001 12.9501 42.4001],1.776,1.228,2.394,1.892,1.688,1.115,2.263,1.712,295.0,637.0
2015-06-04,Rome,Italy,12.4501,41.9001,[11.9501 41.4001 12.9501 42.4001],1.816,1.244,2.492,1.965,1.647,1.035,2.214,1.659,311.0,638.0
2015-06-05,Rome,Italy,12.4501,41.9001,[11.9501 41.4001 12.9501 42.4001],1.954,1.4,2.632,2.1,1.678,1.052,2.23,1.673,284.0,607.0
2015-06-06,Rome,Italy,12.4501,41.9001,[11.9501 41.4001 12.9501 42.4001],1.954,1.4,2.632,2.073,1.693,1.027,2.218,1.657,264.0,608.0
2015-06-07,Rome,Italy,12.4501,41.9001,[11.9501 41.4001 12.9501 42.4001],1.951,1.361,2.602,2.021,1.71,1.085,2.219,1.666,251.0,603.0
2015-06-08,Rome,Italy,12.4501,41.9001,[11.9501 41.4001 12.9501 42.4001],2.005,1.4,2.644,2.07,1.684,1.039,2.242,1.67,217.0,627.0
2015-06-09,Rome,Italy,12.4501,41.9001,[11.9501 41.4001 12.9501 42.4001],1.942,1.347,2.589,1.997,1.63,1.045,2.217,1.634,238.0,625.0
2015-06-10,Rome,Italy,12.4501,41.9001,[11.9501 41.4001 12.9501 42.4001],1.858,1.311,2.394,1.944,1.613,1.019,2.192,1.625,198.0,664.0
2015-06-11,Rome,Italy,12.4501,41.9001,[11.9501 41.4001 12.9501 42.4001],1.7,1.267,2.233,1.85,1.556,1.037,2.156,1.61,237.0,682.0
2015-06-12,Rome,Italy,12.4501,41.9001,[11.9501 41.4001 12.9501 42.4001],1.613,1.115,2.218,1.788,1.511,0.926,2.146,1.579,204.0,686.0
2015-06-13,Rome,Italy,12.4501,41.9001,[11.9501 41.4001 12.9501 42.4001],1.596,1.1,2.117,1.662,1.531,0.927,2.178,1.572,200.0,687.0
2015-06-14,Rome,Italy,12.4501,41.9001,[11.9501 41.4001 12.9501 42.4001],1.384,0.906,2.117,1.54,1.54,0.922,2.21,1.587,198.0,689.0
2015-06-15,Rome,Italy,12.4501,41.9001,[11.9501 41.4001 12.9501 42.4001],1.384,0.962,1.999,1.501,1.503,0.895,2.17,1.556,210.0,694.0
2015-06-16,Rome,Italy,12.4501,41.9001,[11.9501 41.4001 12.9501 42.4001],1.378,0.911,1.995,1.466,1.489,0.903,2.183,1.56,218.0,691.0
2015-06-17,Rome,Italy,12.4501,41.9001,[11.9501 41.4001 12.9501 42.4001],1.361,0.856,1.883,1.401,1.466,0.922,2.102,1.538,212.0,683.0
2015-06-18,Rome,Italy,12.4501,41.9001,[11.9501 41.4001 12.9501 42.4001],1.378,0.906,1.97,1.45,1.505,0.968,2.136,1.562,250.0,685.0
2015-06-19,Rome,Italy,12.4501,41.9001,[11.9501 41.4001 12.9501 42.4001],1.325,0.852,1.837,1.28,1.557,1.02,2.141,1.588,226.0,643.0
2015-06-20,Rome,Italy,12.4501,41.9001,[11.9501 41.4001 12.9501 42.4001],1.362,0.906,1.887,1.321,1.563,1.058,2.163,1.596,261.0,682.0
2015-06-21,Rome,Italy,12.4501,41.9001,[11.9501 41.4001 12.9501 42.4001],1.344,0.898,1.883,1.299,1.608,1.091,2.176,1.635,267.0,681.0
2015-06-22,Rome,Italy,12.4501,41.9001,[11.9501 41.4001 12.9501 42.4001],1.374,1.015,1.837,1.339,1.608,1.106,2.166,1.636,278.0,714.0
2015-06-23,Rome,Italy,12.4501,41.9001,[11.9501 41.4001 12.9501 42.4001],1.344,0.911,1.837,1.296,1.601,1.088,2.168,1.618,304.0,693.0
2015-06-24,Rome,Italy,12.4501,41.9001,[11.9501 41.4001 12.9501 42.4001],1.405,1.015,1.892,1.359,1.604,1.119,2.168,1.631,306.0,692.0
2015-06-25,Rome,Italy,12.4501,41.9001,[11.9501 41.4001 12.9501 42.4001],1.384,1.015,1.892,1.366,1.578,1.108,2.183,1.625,338.0,649.0
2015-06-26,Rome,Italy,12.4501,41.9001,[11.9501 41.4001 12.9501 42.4001],1.39,0.991,1.904,1.355,1.596,1.096,2.183,1.623,299.0,627.0
2015-06-27,Rome,Italy,12.4501,41.9001,[11.9501 41.4001 12.9501 42.4001],1.458,1.025,1.97,1.43,1.616,1.102,2.165,1.635,339.0,625.0
2015-06-28,Rome,Italy,12.4501,41.9001,[11.9501 41.4001 12.9501 42.4001],1.506,1.06,1.98,1.456,1.562,1.07,2.096,1.593,312.0,627.0
2015-06-29,Rome,Italy,12.4501,41.9001,[11.9501 41.4001 12.9501 42.4001],1.569,1.155,2.035,1.533,1.583,1.079,2.113,1.603,321.0,627.0